GSAT0201 (GALILEO 5)

Last updated on Mon Dec 15 2025 00:02:41 GMT+0000 (Coordinated Universal Time)

1 40128U 14050A 25348.00572820 -.00000099 00000+0 00000+0 0 9998 2 40128 49.0753 281.0120 1648005 172.3262 190.5827 1.85519648 74882
UTC large
Height (km)
Speed (km/s)
/
Latitude / Longitude
Inclination (degrees)
Orbital Period (minutes)
Azimuth
Elevation
Range (km)
Doppler Factor

Next 0 passes for location: London (51.5072 / 0.1276)

Sorry there are no passes over London.